This is the latest recevied weather packets stored in our database for station/object DH0GMA. If no packets are shown the sender has not sent any weather packets the latest 10 day(s).
| Time | Temp. | Humidity | Pressure | Rain* | Wind** | Luminosity | Snow |
|---|---|---|---|---|---|---|---|
| 1777697705 | 3.89° C | 85% | 1023 hPa | 0 mm | - | - | - |
| 1777697105 | 3.33° C | 84% | 1022.9 hPa | 0 mm | - | - | - |
| 1777696504 | 3.33° C | 84% | 1023 hPa | 0 mm | - | - | - |
| 1777695904 | 3.33° C | 84% | 1022.9 hPa | 0 mm | - | - | - |
| 1777695304 | 3.33° C | 83% | 1022.9 hPa | 0 mm | - | - | - |
| 1777694704 | 3.89° C | 82% | 1023 hPa | 0 mm | - | - | - |
| 1777694104 | 3.89° C | 82% | 1022.8 hPa | 0 mm | - | - | - |
| 1777693504 | 4.44° C | 81% | 1022.8 hPa | 0 mm | - | - | - |
| 1777692903 | 4.44° C | 80% | 1022.8 hPa | 0 mm | - | - | - |
| 1777692303 | 5° C | 80% | 1022.9 hPa | 0 mm | - | - | - |
| 1777691705 | 5° C | 80% | 1022.8 hPa | 0 mm | - | - | - |
| 1777691105 | 5° C | 79% | 1023 hPa | 0 mm | - | - | - |
| 1777690505 | 5.56° C | 78% | 1022.9 hPa | 0 mm | - | - | - |
| 1777689905 | 5.56° C | 78% | 1022.9 hPa | 0 mm | - | - | - |
| 1777689305 | 5.56° C | 77% | 1023.1 hPa | 0 mm | - | - | - |
| 1777688705 | 6.11° C | 76% | 1023.1 hPa | 0 mm | - | - | - |
| 1777688105 | 6.67° C | 75% | 1023.1 hPa | 0 mm | - | - | - |
| 1777687505 | 6.67° C | 75% | 1023.2 hPa | 0 mm | - | - | - |
| 1777686904 | 6.67° C | 76% | 1023.1 hPa | 0 mm | - | - | - |
| 1777686304 | 6.67° C | 76% | 1023.2 hPa | 0 mm | - | - | - |
| 1777685704 | 6.67° C | 74% | 1023.2 hPa | 0 mm | - | - | - |
| 1777685104 | 7.22° C | 72% | 1023.3 hPa | 0 mm | - | - | - |
| 1777684504 | 8.33° C | 70% | 1023.5 hPa | 0 mm | - | - | - |
| 1777683904 | 8.89° C | 68% | 1023.3 hPa | 0 mm | - | - | - |
| 1777683303 | 8.89° C | 67% | 1023.3 hPa | 0 mm | - | - | - |
* Rain latest hour (hover to see other rain measurements)
** Current wind speed in m/s (hover to see current wind gust speed)